EW3966 Weather Reports


Display with metric or nautical units.
time (UTC)temp
F
wind
direction
speed
MPH
gust
MPH
rain 1hr
in
rain 24hr
in
rain mn
in
humidity
%
barometer
mb
20260509012556 47 155 2.0 8.0 0.00 0.00 0.00 97 999.2
20260509012055 46 149 2.0 7.0 0.00 0.00 0.00 97 999.4
20260509011558 45 151 3.0 7.0 0.00 0.00 0.00 97 999.5
20260509011054 44 90 2.0 8.0 0.00 0.00 0.00 97 999.4
20260509010553 44 155 3.0 8.0 0.00 0.00 0.00 97 999.4
20260509010059 44 35 2.0 8.0 0.00 0.00 0.00 97 999.6
20260509005554 44 97 3.0 7.0 0.00 0.00 0.00 97 999.6
20260509005054 45 120 3.0 7.0 0.00 0.00 0.00 97 999.6
20260509004607 46 104 1.0 12.0 0.00 0.00 0.00 97 999.7
20260509004052 45 300 3.0 12.0 0.00 0.00 0.00 97 999.7
20260509003554 45 124 3.0 11.0 0.00 0.00 0.00 97 999.9
20260509002552 45 126 4.0 12.0 0.00 0.00 0.00 97 1000.1
20260509002052 45 81 3.0 12.0 0.00 0.00 0.00 97 1000.1
20260509001553 44 221 3.0 14.0 0.00 0.00 0.00 97 1000.0
20260509001152 43 335 4.0 14.0 0.00 0.00 0.00 97 1000.1
20260509000554 43 191 3.0 12.0 0.00 0.00 0.00 97 1000.2
20260509000052 43 9 3.0 12.0 0.00 0.00 0.00 97 1000.0
20260508235552 42 149 1.0 5.0 0.00 0.00 0.00 97 1000.1
20260508235053 42 56 1.0 10.0 0.00 0.00 0.00 97 1000.3
20260508234555 42 58 2.0 10.0 0.00 0.00 0.00 97 1000.3
20260508234051 43 70 2.0 7.0 0.00 0.00 0.00 97 1000.3
20260508233552 44 58 3.0 10.0 0.00 0.00 0.00 97 1000.2
20260508232550 44 74 3.0 8.0 0.00 0.00 0.00 97 1000.0
20260508232055 44 137 3.0 11.0 0.00 0.00 0.00 97 999.9
20260508231557 44 178 4.0 11.0 0.00 0.00 0.00 97 999.8
20260508231050 44 197 3.0 10.0 0.00 0.00 0.00 97 1000.0
20260508230552 44 149 2.0 8.0 0.00 0.00 0.00 97 1000.1
20260508230122 44 141 3.0 8.0 0.00 0.00 0.00 97 1000.0
20260508225549 44 69 3.0 8.0 0.00 0.00 0.00 97 1000.1
20260508225053 43 76 3.0 8.0 0.00 0.00 0.00 97 1000.2
20260508224551 43 74 3.0 7.0 0.00 0.00 0.00 97 1000.2
20260508224048 43 93 3.0 7.0 0.00 0.00 0.00 97 1000.1
20260508223548 43 153 2.0 6.0 0.00 0.00 0.00 97 1000.2
20260508222548 42 144 2.0 10.0 0.00 0.00 0.00 97 1000.4
20260508222051 42 318 4.0 11.0 0.00 0.00 0.00 97 1000.5
20260508221548 42 195 4.0 14.0 0.00 0.00 0.00 97 1000.6
20260508221048 43 259 8.0 14.0 0.00 0.00 0.00 97 1000.8
20260508220547 43 290 3.0 7.0 0.00 0.00 0.00 97 1000.3
20260508220113 43 202 1.0 5.0 0.00 0.00 0.00 97 1000.3
20260508215547 43 345 1.0 7.0 0.00 0.00 0.00 97 1000.4
20260508215047 43 170 2.0 9.0 0.00 0.00 0.00 97 1000.4
20260508214549 43 229 1.0 12.0 0.00 0.00 0.00 97 1000.1
20260508214047 43 246 3.0 12.0 0.00 0.00 0.00 97 1000.0
20260508213547 43 239 3.0 11.0 0.00 0.00 0.00 97 1000.4
20260508212546 44 208 5.0 10.0 0.00 0.00 0.00 97 1000.4
20260508212046 44 257 3.0 10.0 0.00 0.00 0.00 97 1000.5
20260508211549 45 230 1.0 8.0 0.00 0.00 0.00 97 1000.4
20260508211049 45 87 2.0 9.0 0.00 0.00 0.00 97 1000.7
20260508210545 46 249 3.0 10.0 0.00 0.00 0.00 97 1000.7
20260508210045 46 224 4.0 14.0 0.00 0.00 0.00 97 1000.8
20260508205544 45 112 6.0 14.0 0.00 0.00 0.00 97 1000.8
20260508205047 45 134 5.0 12.0 0.00 0.00 0.00 97 1000.7
20260508204546 45 239 3.0 15.0 0.00 0.00 0.00 97 1000.8
20260508204046 45 234 6.0 15.0 0.00 0.00 0.00 97 1000.6
20260508203544 44 196 4.0 11.0 0.00 0.00 0.00 97 1000.9
20260508202544 43 149 5.0 12.0 0.00 0.00 0.00 96 1001.1
20260508202046 43 96 4.0 11.0 0.00 0.00 0.00 96 1001.2
20260508201546 43 122 3.0 11.0 0.00 0.00 0.00 97 1001.3
20260508201043 44 92 4.0 10.0 0.00 0.00 0.00 97 1000.7
20260508200543 43 123 4.0 10.0 0.00 0.00 0.00 96 1000.6
20260508200044 43 92 5.0 9.0 0.00 0.00 0.00 96 1000.5
20260508195541 43 45 3.0 9.0 0.00 0.00 0.00 96 1001.0
20260508195041 43 136 4.0 9.0 0.00 0.00 0.00 96 1001.1
20260508194541 43 108 4.0 8.0 0.00 0.00 0.00 96 1001.2
20260508194044 43 85 5.0 11.0 0.00 0.00 0.00 96 1001.1
20260508193545 43 118 5.0 10.0 0.00 0.00 0.00 96 1001.6
20260508192542 44 159 4.0 10.0 0.00 0.00 0.00 96 1001.3
20260508192043 44 114 3.0 7.0 0.00 0.00 0.00 96 1001.1
20260508191541 44 110 2.0 8.0 0.00 0.00 0.00 96 1001.5
20260508191041 44 90 3.0 10.0 0.00 0.00 0.00 96 1001.7
20260508190543 44 90 2.0 8.0 0.00 0.00 0.00 96 1001.5
20260508190050 45 168 3.0 9.0 0.00 0.00 0.00 96 1001.7
20260508185540 45 83 3.0 9.0 0.00 0.00 0.00 96 1001.9
20260508185040 44 68 2.0 9.0 0.00 0.00 0.00 96 1001.4
20260508184548 44 165 3.0 9.0 0.00 0.00 0.00 96 1001.7
20260508184043 44 120 2.0 9.0 0.00 0.00 0.00 96 1001.2
20260508183542 44 73 3.0 9.0 0.00 0.00 0.00 96 1001.5
20260508182539 45 103 2.0 10.0 0.00 0.00 0.00 96 1001.9
20260508182039 46 128 2.0 6.0 0.00 0.00 0.00 96 1002.0
20260508181557 46 99 2.0 7.0 0.00 0.00 0.00 96 1002.0
20260508181038 46 133 2.0 8.0 0.00 0.00 0.00 96 1002.0
20260508180538 45 70 1.0 8.0 0.00 0.00 0.00 96 1002.0
20260508180046 45 186 1.0 8.0 0.00 0.00 0.00 96 1002.1
20260508175538 45 83 2.0 8.0 0.00 0.00 0.00 96 1002.2
20260508175040 46 195 2.0 9.0 0.00 0.00 0.00 96 1002.4
20260508174548 46 120 2.0 9.0 0.00 0.00 0.00 96 1002.4
20260508174037 46 155 5.0 9.0 0.00 0.00 0.00 96 1002.4
20260508173539 47 106 2.0 7.0 0.00 0.00 0.00 96 1002.3
20260508172538 47 103 3.0 7.0 0.00 0.00 0.00 96 1002.5
20260508172038 46 141 3.0 9.0 0.00 0.00 0.00 96 1002.4
20260508171538 46 128 4.0 9.0 0.00 0.00 0.00 96 1002.4
20260508171038 46 133 4.0 8.0 0.00 0.00 0.00 96 1002.6
20260508170537 47 167 3.0 9.0 0.00 0.00 0.00 96 1002.7
20260508170037 47 129 4.0 9.0 0.00 0.00 0.00 96 1002.7
20260508165538 46 254 3.0 6.0 0.00 0.00 0.00 96 1002.5
20260508165036 46 155 2.0 9.0 0.00 0.00 0.00 96 1002.5
20260508164536 47 47 2.0 9.0 0.00 0.00 0.00 96 1002.6
20260508164038 47 60 3.0 9.0 0.00 0.00 0.00 96 1002.6
20260508163539 48 146 4.0 7.0 0.00 0.00 0.00 96 1002.7
20260508162537 48 103 3.0 9.0 0.00 0.00 0.00 97 1002.4
20260508162037 47 72 2.0 6.0 0.00 0.00 0.00 97 1002.3
20260508161538 46 166 2.0 7.0 0.00 0.00 0.00 97 1002.4
20260508161038 46 103 1.0 7.0 0.00 0.00 0.00 96 1002.2
20260508160537 45 116 4.0 8.0 0.00 0.00 0.00 96 1002.2
20260508160036 45 97 4.0 10.0 0.00 0.00 0.00 96 1002.2
20260508155539 45 98 3.0 11.0 0.00 0.00 0.00 96 1002.0
20260508155038 45 136 4.0 11.0 0.00 0.00 0.00 96 1002.1
20260508154536 44 91 2.0 8.0 0.00 0.00 0.00 96 1001.9
20260508154035 44 82 3.0 10.0 0.00 0.00 0.00 96 1001.9
20260508153535 44 181 3.0 12.0 0.00 0.00 0.00 96 1001.7
20260508152535 44 170 5.0 11.0 0.00 0.00 0.00 96 1002.0
20260508152034 44 179 3.0 14.0 0.00 0.00 0.00 96 1001.9
20260508151534 44 75 4.0 14.0 0.00 0.00 0.00 96 1001.9
20260508151034 45 158 4.0 9.0 0.00 0.00 0.00 96 1002.0
20260508150535 45 118 3.0 8.0 0.00 0.00 0.00 96 1002.0
20260508150035 45 177 3.0 7.0 0.00 0.00 0.00 96 1001.9
20260508145532 46 92 2.0 8.0 0.00 0.00 0.00 96 1001.8
20260508145032 46 130 3.0 8.0 0.00 0.00 0.00 96 1002.0
20260508144534 46 166 1.0 9.0 0.00 0.00 0.00 96 1001.9
20260508144032 46 182 3.0 10.0 0.00 0.00 0.00 96 1002.0
20260508143532 46 190 3.0 12.0 0.00 0.00 0.00 96 1002.1
20260508142632 45 187 3.0 10.0 0.00 0.00 0.00 96 1001.9
20260508142034 45 218 4.0 12.0 0.00 0.00 0.00 96 1002.1
20260508141533 45 137 2.0 9.0 0.00 0.00 0.00 96 1002.2
20260508141033 46 201 4.0 9.0 0.00 0.00 0.00 96 1002.1
20260508140531 46 45 1.0 8.0 0.00 0.00 0.00 96 1002.0
20260508140036 46 137 3.0 8.0 0.00 0.00 0.00 96 1002.4
20260508135532 46 62 1.0 10.0 0.00 0.00 0.00 96 1002.4
20260508135031 46 170 3.0 10.0 0.00 0.00 0.00 96 1002.4
20260508134534 46 180 4.0 8.0 0.00 0.00 0.00 96 1002.5
20260508134030 46 149 4.0 10.0 0.00 0.00 0.00 96 1002.6
20260508133530 46 91 3.0 10.0 0.00 0.00 0.00 96 1002.6
20260508132534 46 141 4.0 12.0 0.00 0.00 0.00 96 1002.6
20260508132033 46 117 5.0 12.0 0.00 0.00 0.00 96 1002.5
20260508131532 46 124 3.0 9.0 0.00 0.00 0.00 96 1002.6
20260508131031 46 164 3.0 9.0 0.00 0.00 0.00 96 1002.6
20260508130530 46 140 4.0 12.0 0.00 0.00 0.00 96 1002.3
20260508130030 46 173 6.0 12.0 0.00 0.00 0.00 96 1002.4
20260508125530 46 181 4.0 13.0 0.00 0.00 0.00 96 1002.4
20260508125029 46 157 3.0 9.0 0.00 0.00 0.00 96 1002.7
20260508124529 46 65 3.0 9.0 0.00 0.00 0.00 96 1002.5
20260508124029 46 124 3.0 9.0 0.00 0.00 0.00 96 1002.6
20260508123528 46 135 3.0 10.0 0.00 0.00 0.00 96 1002.6
20260508122532 45 170 5.0 10.0 0.00 0.00 0.00 96 1002.8
20260508122028 44 170 4.0 9.0 0.00 0.00 0.00 96 1002.9
20260508121538 44 215 3.0 9.0 0.00 0.00 0.00 96 1002.7
20260508121027 44 141 2.0 7.0 0.00 0.00 0.00 96 1003.0
20260508120527 44 85 2.0 6.0 0.00 0.00 0.00 96 1002.9
20260508120027 44 180 0.0 8.0 0.00 0.00 0.00 96 1003.0
20260508115527 44 37 3.0 8.0 0.00 0.00 0.00 96 1003.1
20260508115026 44 160 1.0 9.0 0.00 0.00 0.00 96 1003.1
20260508114526 44 149 3.0 9.0 0.00 0.00 0.00 96 1003.3
20260508114029 44 170 3.0 9.0 0.00 0.00 0.00 96 1003.3
20260508113526 45 101 2.0 8.0 0.00 0.00 0.00 96 1003.3
20260508112524 45 66 4.0 8.0 0.00 0.00 0.00 96 1003.3
20260508112024 46 112 3.0 8.0 0.00 0.00 0.00 96 1003.3
20260508111524 46 147 3.0 8.0 0.00 0.00 0.00 96 1003.3
20260508111022 46 125 3.0 9.0 0.00 0.00 0.00 96 1003.4
20260508110523 45 199 4.0 8.0 0.00 0.00 0.00 96 1003.4
20260508110023 45 101 1.0 7.0 0.00 0.00 0.00 96 1003.5
20260508105523 45 128 2.0 7.0 0.00 0.00 0.00 96 1003.5
20260508105023 45 162 1.0 8.0 0.00 0.00 0.00 96 1003.6
20260508104522 46 141 1.0 8.0 0.00 0.00 0.00 96 1003.5
20260508104022 46 139 2.0 6.0 0.00 0.00 0.00 96 1003.5
20260508103522 47 125 2.0 6.0 0.00 0.00 0.00 96 1003.6
20260508102522 48 132 2.0 9.0 0.00 0.00 0.00 96 1003.6
20260508102022 48 157 1.0 9.0 0.00 0.00 0.00 96 1003.7
20260508101522 48 274 1.0 4.0 0.00 0.00 0.00 96 1003.7
20260508101021 48 178 1.0 4.0 0.00 0.00 0.00 96 1003.7
20260508100522 48 320 0.0 5.0 0.00 0.00 0.00 97 1003.7
20260508100025 47 259 1.0 6.0 0.00 0.00 0.00 96 1003.8
20260508095522 47 143 1.0 6.0 0.00 0.00 0.00 96 1003.8
20260508095025 46 101 1.0 5.0 0.00 0.00 0.00 96 1003.8
20260508094522 46 81 0.0 4.0 0.00 0.00 0.00 96 1003.7
20260508094021 46 53 1.0 5.0 0.00 0.00 0.00 96 1003.7
20260508093521 46 93 1.0 5.0 0.00 0.00 0.00 96 1003.8
20260508092522 46 128 2.0 6.0 0.00 0.00 0.00 96 1003.7
20260508092021 46 65 1.0 5.0 0.00 0.00 0.00 96 1003.7
20260508091520 47 59 1.0 6.0 0.00 0.00 0.00 96 1003.7
20260508091021 47 121 1.0 5.0 0.00 0.00 0.00 96 1003.8
20260508090521 48 130 1.0 6.0 0.00 0.00 0.00 96 1003.8
20260508090024 48 113 1.0 6.0 0.00 0.00 0.00 96 1003.8
20260508085519 48 89 1.0 6.0 0.00 0.00 0.00 96 1003.7
20260508085019 48 228 3.0 6.0 0.00 0.00 0.00 96 1003.8
20260508084519 48 216 2.0 7.0 0.00 0.00 0.00 96 1003.9
20260508084018 48 124 3.0 9.0 0.00 0.00 0.00 96 1003.8
20260508083519 49 189 2.0 10.0 0.00 0.00 0.00 96 1003.8
20260508082518 48 58 2.0 8.0 0.00 0.00 0.00 96 1003.9
20260508082021 48 112 3.0 7.0 0.00 0.00 0.00 96 1003.8
20260508081548 48 97 2.0 7.0 0.00 0.00 0.00 96 1003.9
20260508081017 48 158 2.0 7.0 0.00 0.00 0.00 96 1003.9
20260508080517 49 170 3.0 6.0 0.00 0.00 0.00 96 1003.8
20260508080017 49 85 1.0 6.0 0.00 0.00 0.00 96 1003.9
20260508075517 49 184 1.0 7.0 0.00 0.00 0.00 96 1003.9
20260508075015 48 131 3.0 9.0 0.00 0.00 0.00 97 1003.9
20260508074514 48 143 3.0 11.0 0.00 0.00 0.00 96 1004.0
20260508074014 48 115 3.0 11.0 0.00 0.00 0.00 96 1004.0
20260508073513 48 169 1.0 10.0 0.00 0.00 0.00 96 1004.1
20260508072514 48 107 2.0 9.0 0.00 0.00 0.00 96 1004.2
20260508072014 48 215 3.0 9.0 0.00 0.00 0.00 96 1004.2
20260508071533 47 259 2.0 9.0 0.00 0.00 0.00 96 1004.3
20260508071016 47 167 3.0 10.0 0.00 0.00 0.00 96 1004.3
20260508070517 47 168 3.0 10.0 0.00 0.00 0.00 96 1004.4
20260508070013 48 142 3.0 10.0 0.00 0.00 0.00 96 1004.3
20260508065512 48 211 2.0 9.0 0.00 0.00 0.00 96 1004.4
20260508065013 48 259 1.0 10.0 0.00 0.00 0.00 96 1004.4
20260508064512 48 115 3.0 10.0 0.00 0.00 0.00 96 1004.4
20260508064013 48 188 3.0 7.0 0.00 0.00 0.00 96 1004.4
20260508063514 48 277 1.0 7.0 0.00 0.00 0.00 96 1004.3
20260508062516 48 160 2.0 7.0 0.00 0.00 0.00 96 1004.4
20260508062010 48 247 2.0 11.0 0.00 0.00 0.00 96 1004.6
20260508061510 48 326 3.0 12.0 0.00 0.00 0.00 96 1004.5
20260508061008 48 189 6.0 12.0 0.00 0.00 0.00 97 1004.7
20260508060507 48 95 5.0 12.0 0.00 0.00 0.00 96 1004.5
20260508060007 47 121 3.0 16.0 0.00 0.00 0.00 97 1004.6
20260508055505 47 59 5.0 16.0 0.00 0.00 0.00 96 1004.6
20260508055005 46 160 3.0 13.0 0.00 0.00 0.00 96 1004.5
20260508054507 46 151 3.0 15.0 0.00 0.00 0.00 96 1004.9
20260508054002 44 299 1.0 9.0 0.00 0.00 0.00 96 1004.9
20260508053502 44 111 4.0 12.0 0.00 0.00 0.00 96 1005.0
20260508052601 43 116 4.0 11.0 0.00 0.00 0.00 96 1005.1
20260508052503 43 112 5.0 11.0 0.00 0.00 0.00 96 1005.1
20260508052100 43 146 5.0 12.0 0.00 0.00 0.00 96 1005.3
20260508051600 44 142 5.0 12.0 0.00 0.00 0.00 96 1005.5
20260508051100 44 148 4.0 12.0 0.00 0.00 0.00 96 1005.4
20260508050559 44 168 3.0 11.0 0.00 0.00 0.00 96 1005.6
20260508050058 44 158 4.0 9.0 0.00 0.00 0.00 96 1005.8
20260508045556 44 139 4.0 11.0 0.00 0.00 0.00 96 1005.8
20260508045056 43 91 3.0 11.0 0.00 0.00 0.00 96 1005.9
20260508044555 43 117 3.0 18.0 0.00 0.00 0.00 96 1006.1
20260508044058 43 174 5.0 18.0 0.00 0.00 0.00 96 1006.2
20260508043555 43 195 5.0 13.0 0.00 0.00 0.00 96 1006.3
20260508042554 43 112 6.0 15.0 0.00 0.00 0.00 96 1006.5
20260508042053 43 162 3.0 10.0 0.00 0.00 0.00 96 1006.6
20260508041553 43 61 5.0 11.0 0.00 0.00 0.00 96 1006.8
20260508041052 43 122 5.0 11.0 0.00 0.00 0.00 96 1006.9
20260508040552 43 157 4.0 11.0 0.00 0.00 0.00 96 1007.0
20260508040055 43 202 2.0 16.0 0.00 0.00 0.00 96 1007.3
20260508035552 43 196 7.0 16.0 0.00 0.00 0.00 96 1007.3
20260508035051 43 150 7.0 14.0 0.00 0.00 0.00 96 1007.2
20260508034552 43 227 8.0 14.0 0.00 0.00 0.00 96 1007.2
20260508034050 43 248 5.0 14.0 0.00 0.00 0.00 96 1007.2
20260508033549 43 255 4.0 15.0 0.00 0.00 0.00 96 1007.6
20260508032550 43 217 5.0 11.0 0.00 0.00 0.00 96 1007.6
20260508032049 43 222 5.0 11.0 0.00 0.00 0.00 96 1007.7
20260508031547 43 182 4.0 13.0 0.00 0.00 0.00 96 1008.0
20260508031046 43 187 4.0 13.0 0.00 0.00 0.00 96 1008.1
20260508030545 43 264 2.0 11.0 0.00 0.00 0.00 96 1008.1
20260508030045 43 271 2.0 19.0 0.00 0.00 0.00 96 1008.2
20260508025546 43 249 6.0 19.0 0.00 0.00 0.00 96 1008.3
20260508025043 43 185 6.0 15.0 0.00 0.00 0.00 96 1008.4
20260508024548 43 214 7.0 15.0 0.00 0.00 0.00 96 1008.6
20260508024041 43 186 7.0 15.0 0.00 0.00 0.00 96 1008.7
20260508023541 44 228 5.0 12.0 0.00 0.00 0.00 96 1008.7
20260508022539 44 181 2.0 11.0 0.00 0.00 0.00 96 1009.1
20260508022038 44 158 3.0 10.0 0.00 0.00 0.00 96 1009.3
20260508021537 44 250 2.0 11.0 0.00 0.00 0.00 96 1009.4
20260508021037 44 255 3.0 11.0 0.00 0.00 0.00 96 1009.7
20260508020537 44 253 4.0 8.0 0.00 0.00 0.00 96 1009.7
20260508020036 44 224 4.0 9.0 0.00 0.00 0.00 96 1009.6
20260508015537 44 228 4.0 9.0 0.00 0.00 0.00 96 1009.6
20260508015036 44 236 1.0 15.0 0.00 0.00 0.00 96 1009.5
20260508014541 44 121 2.0 15.0 0.00 0.00 0.00 96 1009.8
20260508014036 43 230 2.0 14.0 0.00 0.00 0.00 95 1010.0
20260508013535 43 164 3.0 14.0 0.00 0.00 0.00 95 1010.0